[[{"header":{"parameterUnit":"m.s-1","parameterCategory":1,"la1":30.2991,"la2":30.254,"lo1":-89.0895,"lo2":-89.0444,"dy":0.0017,"dx":0.0017,"nx":28,"ny":28,"refTime":"2024-10-14T03:00:00:Z","depth":0,"parameterNumber":2,"parameterNumberName":"U-component_of_WINDS"},"data":[0,0,0,0,0,0,0,0,0,0,0,0,0,0,0,0,0,0,0,0,0,0,0,0,0,0,0,0,0,0,0,0,0,0,0,0,0,0,0,0,0,0,0,0,0,0,0,0,0,0,0,0,0,0,0,0,0,0,-4.1696,-4.1695,0,-4.1682,-4.1681,-4.1681,-4.1546,-4.1542,-4.1539,-4.1536,-4.1524,-4.1527,-4.153,0,0,0,0,0,0,0,0,0,0,0,0,0,-4.1607,-4.1609,-4.1696,-4.1695,-4.1695,-4.1682,-4.1681,-4.1681,-4.1546,-4.1542,-4.1538,-4.1534,-4.1523,-4.1527,-4.153,0,0,0,0,0,0,0,0,0,0,0,0,0,-4.1625,-4.161,-4.1696,-4.1626,-4.162,-4.1682,-4.1681,-4.1681,-4.1547,-4.1542,-4.1537,-4.1532,-4.1522,-4.1526,-4.1531,-4.1659,0,0,-4.1544,-4.1546,0,0,0,0,0,0,0,0,-4.1624,-4.1628,-4.1637,-4.1631,-4.1624,-4.161,-4.1646,-4.1674,-4.1548,-4.1575,-4.1536,-4.153,-4.1557,-4.1558,-4.1567,-4.1659,-4.1658,-4.1544,-4.1547,-4.1549,-4.155,0,0,0,0,0,0,0,-4.1623,-4.1628,-4.169,-4.1637,-4.1629,-4.1596,-4.1593,-4.1651,-4.1595,-4.1572,-4.1562,-4.1562,-4.1553,-4.1563,-4.1566,-4.1658,-4.1544,-4.1548,-4.1551,-4.1552,-4.1853,-4.1858,0,0,0,0,0,0,-4.1631,-4.1628,-4.1691,-4.169,-4.1611,-4.1602,-4.1598,-4.162,-4.1594,-4.1585,-4.1567,-4.1556,-4.1558,-4.1561,-4.1565,-4.1713,-4.1549,-4.1553,-4.1555,-4.1848,-4.1854,-4.186,0,0,0,0,0,0,-4.1629,-4.1638,-4.1691,-4.1656,-4.166,-4.1609,-4.1634,-4.1622,-4.1632,-4.159,-4.1579,-4.1587,-4.1554,-4.1559,-4.1636,-4.1711,-4.1555,-4.1558,-4.1841,-4.185,-4.1857,-4.2011,0,0,0,0,0,0,-4.1628,-4.1638,-4.1686,-4.1658,-4.1663,-4.1763,-4.1638,-4.1626,-4.164,-4.1626,-4.1606,-4.1598,-4.1551,-4.1631,-4.1641,-4.1714,-4.1562,-4.1834,-4.1845,-4.1855,-4.1999,-4.2023,-4.2044,0,0,0,0,0,-4.1625,-4.1731,-4.1689,-4.1698,-4.1722,-4.1767,-4.177,-4.1712,-4.1646,-4.1694,-4.1667,-4.1599,-4.1701,-4.164,-4.165,-4.1725,-4.183,-4.1842,-4.1854,-4.1989,-4.2018,-4.2044,0,0,0,0,0,0,-4.1771,-4.1726,-4.1679,-4.1779,-4.1778,-4.1744,-4.1803,-4.1746,-4.1764,-4.175,-4.1679,-4.1676,-4.1764,-4.1752,-4.1685,-4.1848,-4.1753,-4.1768,-4.1852,-4.188,-4.1902,-4.1904,-4.1565,0,0,0,0,0,-4.1814,-4.1854,-4.1813,-4.1906,-4.1907,-4.1856,-4.1874,-4.1829,-4.1825,-4.1824,-4.1802,-4.1802,-4.1833,-4.1856,-4.1883,-4.1996,-4.199,-4.2053,-4.2076,-4.2094,-4.2108,-4.2167,-4.2194,-4.19,-4.19,-4.19,0,0,-4.1905,-4.1886,-4.1916,-4.1934,-4.1928,-4.1972,-4.1856,-4.1908,-4.194,-4.1832,-4.1904,-4.1888,-4.1882,-4.1978,-4.202,-4.1971,-4.2188,-4.211,-4.2125,-4.2129,-4.2182,-4.221,-4.2235,-4.1909,-4.1907,-4.1906,0,0,-4.2093,-4.2082,-4.2157,-4.2153,-4.2144,-4.2109,-4.2127,-4.2102,-4.2087,-4.2157,-4.2077,-4.2114,-4.2171,-4.217,-4.2177,-4.2363,-4.2301,-4.2374,-4.2492,-4.255,-4.2573,-4.2593,-4.266,-4.2685,-4.2388,-4.2388,-4.2388,0,-4.2207,-4.2269,-4.2204,-4.226,-4.227,-4.2174,-4.2249,-4.2248,-4.225,-4.226,-4.2205,-4.2273,-4.2263,-4.2357,-4.2402,-4.2411,-4.243,-4.2376,-4.2575,-4.2595,-4.2612,-4.2675,-4.27,-4.2397,-4.2396,-4.2395,-4.2394,0,-4.241,-4.2454,-4.2516,-4.2518,-4.2535,-4.2602,-4.2546,-4.2572,-4.2526,-4.2496,-4.2569,-4.2553,-4.2574,-4.2593,-4.2549,-4.2681,-4.2651,-4.2587,-4.2491,-4.265,-4.2708,-4.2731,-4.241,-4.2406,-4.2404,-4.2402,0,0,-4.2691,-4.2655,-4.2679,-4.2678,-4.266,-4.2693,-4.2755,-4.2774,-4.2798,-4.2802,-4.2852,-4.2901,-4.284,-4.2849,-4.2803,-4.2854,-4.3003,-4.2783,-4.2782,-4.2825,-4.3147,-4.3196,-4.3225,-4.2961,-4.2965,-4.2969,-4.3147,0,-4.2872,-4.2974,-4.2916,-4.3026,-4.3066,-4.2974,-4.3027,-4.3023,-4.2997,-4.3027,-4.2998,-4.3034,-4.2952,-4.2956,-4.3003,-4.2975,-4.3066,-4.2961,-4.3008,-4.301,-4.3012,-4.3255,-4.3307,-4.3476,-4.317,-4.3173,-4.3176,0,-4.3097,-4.3109,-4.3223,-4.3196,-4.3211,-4.326,-4.3273,-4.3303,-4.3296,-4.3273,-4.3282,-4.3224,-4.3282,-4.3187,-4.3267,-4.3196,-4.3212,-4.3201,-4.3206,-4.3209,-4.3103,-4.3264,-4.3529,-4.3554,-4.3211,-4.3208,-4.3206,0,-4.3291,-4.3335,-4.3409,-4.3411,-4.3382,-4.3418,-4.3408,-4.3396,-4.3411,-4.3423,-4.3432,-4.3451,-4.3461,-4.3478,-4.3426,-4.3361,-4.3513,-4.3413,-4.3497,-4.3498,-4.3534,-4.3532,-4.3805,-4.3543,-4.3543,-4.3543,-4.3542,0,-4.3499,-4.3573,-4.3495,-4.3541,-4.362,-4.3552,-4.3633,-4.3613,-4.3603,-4.3643,-4.3565,-4.3604,-4.3534,-4.3567,-4.3527,-4.3599,-4.3605,-4.3589,-4.3577,-4.3596,-4.3598,-4.3606,-4.3593,-4.3549,-4.3548,-4.3546,-4.3545,0,-4.373,-4.368,-4.3754,-4.372,-4.3713,-4.3773,-4.3744,-4.3785,-4.3753,-4.3805,-4.3813,-4.3764,-4.3798,-4.3748,-4.3778,-4.3751,-4.385,-4.3821,-4.3853,-4.3844,-4.393,-4.3923,-4.4218,-4.4253,-4.3969,-4.3972,-4.3974,0,-4.3866,-4.392,-4.3891,-4.3911,-4.3905,-4.394,-4.3954,-4.389,-4.3908,-4.3903,-4.3945,-4.3972,-4.3991,-4.405,-4.4017,-4.404,-4.401,-4.4112,-4.4013,-4.403,-4.4012,-4.401,-4.4015,-4.4133,-4.4136,-4.4139,-4.4141,0,-4.4114,-4.4086,-4.4109,-4.4124,-4.4143,-4.4152,-4.4155,-4.4177,-4.4109,-4.4134,-4.4167,-4.4181,-4.421,-4.4239,-4.4252,-4.4242,-4.4181,-4.4172,-4.4192,-4.4212,-4.4228,-4.4221,-4.3908,-4.4166,-4.4163,-4.4162,-4.416,-4.4159,-4.4301,-4.4344,-4.433,-4.4358,-4.4353,-4.4358,-4.4394,-4.4366,-4.4392,-4.4409,-4.437,-4.4413,-4.4403,-4.4415,-4.4412,-4.4445,-4.44,-4.443,-4.4438,-4.4446,-4.446,-4.4223,-4.4447,-4.4446,-4.4446,-4.4445,-4.4444,0,-4.4545,-4.453,-4.4557,-4.4563,-4.4585,-4.4523,-4.4523,-4.4546,-4.4585,-4.458,-4.4599,-4.4638,-4.4664,-4.4633,-4.4654,-4.4687,-4.466,-4.4695,-4.4692,-4.4691,-4.4498,-4.4478,-4.4717,-4.4717,-4.4717,-4.4717,-4.4716,-4.4716,-4.4674,-4.4743,-4.4714,-4.478,-4.4765,-4.4806,-4.4811,-4.4815,-4.4811,-4.4856,-4.4878,-4.4856,-4.4841,-4.486,-4.4882,-4.4872,-4.4884,-4.493,-4.491,-4.4731,-4.4704,-4.4679,-4.466,-4.4933,-4.4933,-4.51,-4.5101,-4.5103]},{"header":{"parameterUnit":"m.s-1","parameterCategory":1,"la1":30.2991,"la2":30.254,"lo1":-89.0895,"lo2":-89.0444,"dy":0.0017,"dx":0.0017,"nx":28,"ny":28,"refTime":"2024-10-14T03:00:00:Z","depth":0,"parameterNumber":3,"parameterNumberName":"V-component_of_WINDS"},"data":[0,0,0,0,0,0,0,0,0,0,0,0,0,0,0,0,0,0,0,0,0,0,0,0,0,0,0,0,0,0,0,0,0,0,0,0,0,0,0,0,0,0,0,0,0,0,0,0,0,0,0,0,0,0,0,0,0,0,-7.9027,-7.9028,0,-7.9108,-7.9109,-7.911,-7.8988,-7.8983,-7.8979,-7.8975,-7.9052,-7.9058,-7.9064,0,0,0,0,0,0,0,0,0,0,0,0,0,-7.876,-7.8766,-7.9027,-7.9028,-7.9029,-7.9108,-7.9109,-7.911,-7.8988,-7.8983,-7.8978,-7.8973,-7.905,-7.9057,-7.9064,0,0,0,0,0,0,0,0,0,0,0,0,0,-7.8862,-7.8767,-7.9027,-7.8978,-7.8974,-7.9107,-7.9109,-7.911,-7.899,-7.8983,-7.8977,-7.8971,-7.9048,-7.9056,-7.9065,-7.9248,0,0,-7.9093,-7.9097,0,0,0,0,0,0,0,0,-7.8856,-7.8872,-7.8984,-7.8982,-7.8978,-7.9031,-7.9043,-7.9156,-7.8991,-7.8984,-7.8975,-7.8968,-7.905,-7.9058,-7.9087,-7.9251,-7.9255,-7.9094,-7.9099,-7.9103,-7.9105,0,0,0,0,0,0,0,-7.8849,-7.8868,-7.9058,-7.8986,-7.8982,-7.895,-7.8957,-7.9064,-7.9051,-7.8984,-7.8975,-7.8987,-7.9047,-7.9079,-7.9088,-7.9256,-7.9093,-7.9101,-7.9107,-7.911,-7.9572,-7.9578,0,0,0,0,0,0,-7.8849,-7.8863,-7.9056,-7.9061,-7.89,-7.896,-7.8968,-7.902,-7.905,-7.9048,-7.8992,-7.8981,-7.9067,-7.9078,-7.909,-7.9305,-7.9103,-7.9111,-7.9116,-7.9565,-7.9573,-7.9581,0,0,0,0,0,0,-7.8844,-7.8868,-7.9053,-7.896,-7.8981,-7.8971,-7.9031,-7.9025,-7.9057,-7.9056,-7.9052,-7.9028,-7.9062,-7.9078,-7.921,-7.9306,-7.9115,-7.9123,-7.9557,-7.9568,-7.9577,-7.9737,0,0,0,0,0,0,-7.8837,-7.8867,-7.8938,-7.8962,-7.8986,-7.9173,-7.9037,-7.9032,-7.9074,-7.906,-7.9088,-7.9087,-7.9058,-7.9197,-7.9219,-7.9315,-7.9131,-7.9548,-7.9562,-7.9574,-7.9723,-7.9751,-7.9775,0,0,0,0,0,-7.8828,-7.8978,-7.8942,-7.8966,-7.9075,-7.9179,-7.9193,-7.9158,-7.9082,-7.9152,-7.9151,-7.9086,-7.9292,-7.9211,-7.9235,-7.9335,-7.9542,-7.9558,-7.9573,-7.9711,-7.9745,-7.9775,0,0,0,0,0,0,-7.8963,-7.8981,-7.894,-7.9104,-7.9141,-7.9158,-7.9246,-7.9196,-7.9254,-7.9239,-7.9191,-7.9199,-7.9341,-7.9351,-7.9261,-7.9512,-7.9404,-7.9425,-7.9501,-7.9534,-7.956,-7.9554,-7.9138,0,0,0,0,0,-7.9013,-7.9098,-7.9107,-7.925,-7.9271,-7.9256,-7.93,-7.927,-7.9306,-7.9321,-7.9329,-7.9365,-7.9437,-7.9486,-7.9553,-7.9723,-7.9727,-7.9804,-7.983,-7.9852,-7.987,-7.996,-7.9993,-7.9631,-7.9631,-7.9631,0,0,-7.9114,-7.9134,-7.9191,-7.9278,-7.9304,-7.9391,-7.927,-7.9367,-7.9431,-7.9335,-7.946,-7.9468,-7.9504,-7.9656,-7.9724,-7.9669,-7.9971,-7.9871,-7.9889,-7.9895,-7.9979,-8.0013,-8.0044,-7.9642,-7.964,-7.9638,0,0,-7.9344,-7.9369,-7.9491,-7.9519,-7.956,-7.9548,-7.9578,-7.9603,-7.9605,-7.973,-7.966,-7.9733,-7.9859,-7.9888,-7.9919,-8.0159,-8.0101,-8.0182,-8.032,-8.0407,-8.0436,-8.0461,-8.0545,-8.0577,-8.02,-8.0201,-8.0201,0,-7.9465,-7.9596,-7.9559,-7.9662,-7.9701,-7.962,-7.9741,-7.977,-7.983,-7.9858,-7.9796,-7.9953,-7.9971,-8.0128,-8.0187,-8.0215,-8.0245,-8.0178,-8.0435,-8.046,-8.0483,-8.0563,-8.0595,-8.021,-8.0209,-8.0208,-8.0207,0,-7.9742,-7.9834,-7.9927,-7.9989,-8.0038,-8.015,-8.0127,-8.0182,-8.0148,-8.0142,-8.027,-8.0289,-8.0358,-8.0393,-8.036,-8.0545,-8.051,-8.0443,-8.0333,-8.0527,-8.0602,-8.0632,-8.0224,-8.0221,-8.0218,-8.0215,0,0,-8.006,-8.01,-8.0135,-8.0161,-8.02,-8.0269,-8.0376,-8.0445,-8.0492,-8.0535,-8.0622,-8.0731,-8.0669,-8.0704,-8.0673,-8.0751,-8.0938,-8.0673,-8.0673,-8.0721,-8.1142,-8.1192,-8.1228,-8.09,-8.0906,-8.091,-8.1138,0,-8.0289,-8.0476,-8.0445,-8.0625,-8.0708,-8.0632,-8.0725,-8.0757,-8.0755,-8.0822,-8.0818,-8.0896,-8.0808,-8.0829,-8.0902,-8.09,-8.1022,-8.0883,-8.0978,-8.0982,-8.0971,-8.1267,-8.132,-8.1535,-8.1167,-8.1172,-8.1176,0,-8.0581,-8.0638,-8.0827,-8.0852,-8.0886,-8.097,-8.103,-8.1097,-8.1131,-8.1123,-8.1163,-8.1118,-8.1221,-8.1111,-8.1252,-8.1158,-8.1195,-8.12,-8.1207,-8.1214,-8.1091,-8.1281,-8.1602,-8.1634,-8.1221,-8.1218,-8.1214,0,-8.0793,-8.0916,-8.1045,-8.107,-8.1103,-8.1164,-8.1179,-8.1208,-8.1251,-8.1303,-8.133,-8.1392,-8.1427,-8.1475,-8.1447,-8.1369,-8.1592,-8.1479,-8.1587,-8.1588,-8.1637,-8.1635,-8.1968,-8.1663,-8.1662,-8.1662,-8.1661,0,-8.1052,-8.1171,-8.1141,-8.122,-8.135,-8.1312,-8.144,-8.1446,-8.1472,-8.1549,-8.1486,-8.156,-8.1518,-8.1588,-8.1566,-8.1685,-8.1701,-8.1696,-8.1689,-8.1702,-8.1703,-8.1725,-8.1709,-8.167,-8.1668,-8.1667,-8.1665,0,-8.1311,-8.1296,-8.1431,-8.1451,-8.1459,-8.1554,-8.1569,-8.1642,-8.1634,-8.1733,-8.1753,-8.1741,-8.1819,-8.1796,-8.188,-8.1865,-8.2017,-8.1991,-8.2006,-8.1999,-8.2108,-8.2098,-8.2467,-8.2513,-8.2179,-8.2182,-8.2185,0,-8.1476,-8.1566,-8.1596,-8.1645,-8.1666,-8.1744,-8.1788,-8.1753,-8.1801,-8.1847,-8.1914,-8.1987,-8.2044,-8.2172,-8.2169,-8.2233,-8.2207,-8.2332,-8.2216,-8.2226,-8.2208,-8.2203,-8.2211,-8.2355,-8.2359,-8.2362,-8.2365,0,-8.1772,-8.176,-8.1828,-8.1893,-8.1948,-8.1997,-8.2039,-8.2082,-8.2049,-8.2106,-8.2187,-8.2231,-8.2318,-8.239,-8.2448,-8.2461,-8.2408,-8.2401,-8.2429,-8.2443,-8.2448,-8.2446,-8.2068,-8.2393,-8.239,-8.2388,-8.2386,-8.2385,-8.1988,-8.2064,-8.2097,-8.2174,-8.2203,-8.2244,-8.2313,-8.2315,-8.2382,-8.2452,-8.2426,-8.2518,-8.2548,-8.262,-8.2641,-8.2711,-8.2663,-8.2704,-8.2714,-8.2725,-8.2738,-8.2438,-8.2721,-8.272,-8.272,-8.2719,-8.2718,0,-8.228,-8.2297,-8.2369,-8.2431,-8.2491,-8.2437,-8.2481,-8.2534,-8.2617,-8.265,-8.2708,-8.2799,-8.287,-8.2872,-8.2937,-8.2992,-8.2969,-8.301,-8.3006,-8.3009,-8.2778,-8.2747,-8.3028,-8.3028,-8.3028,-8.3028,-8.3028,-8.3028,-8.2438,-8.2563,-8.2556,-8.2693,-8.2709,-8.2801,-8.283,-8.2867,-8.2894,-8.3,-8.3058,-8.306,-8.3081,-8.3146,-8.3208,-8.3206,-8.3232,-8.3283,-8.3273,-8.3056,-8.3026,-8.2996,-8.2967,-8.329,-8.329,-8.3498,-8.35,-8.3501]}]]